Location: Ferques
(50.8300°N, 1.7599°E)
Time: 06:13:56
(UTC+00:00)

Cosmos 44 - Pass Details

Date: 19 May 2025
Orbit: 588 x 763 km, 65.1° (Epoch: 18 June)

Event Time Altitude Azimuth Distance (km) Brightness Sun altitude
Rises 21:15:05 0° 317° (NW) 2,899 8.6 -11.5°
Reaches altitude 10° 21:17:21 10° 313° (NW) 2,012 7.1 -11.7°
Maximum altitude 21:21:48 56° 235° (SW) 772 3.5 -12.1°
Enters shadow 21:25:18 17° 162° (SSE) 1,667 4.7 -12.4°
